EN

Hourly Weather Osie

Today, 18 May, Tuesday

Time Temperature Precipitation Wind Pressure Humidity
00:00 +13°C° 0.4 mm 1 mps 744 mmHg 87%
01:00 +13°C° 0.4 mm 1 mps 744 mmHg 90%
02:00 +12°C° 1.2 mm 1 mps 744 mmHg 91%
03:00 +12°C° 1.2 mm 1 mps 744 mmHg 93%
04:00 +11°C° 1.2 mm 1 mps 744 mmHg 94%
05:00 +11°C° 2.2 mm 1 mps 745 mmHg 95%
06:00 +11°C° 2.2 mm 1 mps 745 mmHg 96%
07:00 +11°C° 2.2 mm 1 mps 745 mmHg 96%
08:00 +12°C° 1 mm 1 mps 745 mmHg 94%
09:00 +12°C° 1 mm 1 mps 745 mmHg 91%
10:00 +13°C° 1 mm 2 mps 746 mmHg 88%
11:00 +14°C° 0.4 mm 2 mps 746 mmHg 85%
12:00 +13°C° 0.4 mm 3 mps 746 mmHg 81%
13:00 +14°C° 0.4 mm 3 mps 746 mmHg 77%
14:00 +14°C° 0.4 mm 3 mps 746 mmHg 76%
15:00 +14°C° 0.4 mm 3 mps 746 mmHg 76%
16:00 +14°C° 0.4 mm 3 mps 746 mmHg 75%
17:00 +13°C° 0.3 mm 3 mps 746 mmHg 79%
18:00 +13°C° 0.3 mm 2 mps 747 mmHg 82%
19:00 +13°C° 0.3 mm 1 mps 747 mmHg 86%
20:00 +12°C° 0 mm 2 mps 747 mmHg 88%
21:00 +10°C° 0 mm 2 mps 747 mmHg 91%
22:00 +9°C° 0 mm 2 mps 747 mmHg 93%
23:00 +8°C° 0 mm 2 mps 747 mmHg 93%

Tomorrow, 19 May, Wednesday

Time Temperature Precipitation Wind Pressure Humidity
00:00 +8°C° 0 mm 2 mps 748 mmHg 93%
01:00 +7°C° 0 mm 2 mps 748 mmHg 94%
02:00 +7°C° 0 mm 2 mps 748 mmHg 94%
03:00 +7°C° 0 mm 2 mps 748 mmHg 95%
04:00 +7°C° 0 mm 3 mps 748 mmHg 96%
05:00 +8°C° 0 mm 3 mps 748 mmHg 91%
06:00 +10°C° 0 mm 3 mps 748 mmHg 86%
07:00 +11°C° 0 mm 4 mps 749 mmHg 81%
08:00 +13°C° 0.1 mm 4 mps 749 mmHg 72%
09:00 +14°C° 0.1 mm 4 mps 749 mmHg 63%
10:00 +15°C° 0.1 mm 4 mps 749 mmHg 54%
11:00 +17°C° 0 mm 4 mps 749 mmHg 52%
12:00 +16°C° 0 mm 5 mps 749 mmHg 49%
13:00 +16°C° 0 mm 5 mps 749 mmHg 47%
14:00 +16°C° 0 mm 5 mps 749 mmHg 49%
15:00 +16°C° 0 mm 5 mps 749 mmHg 51%
16:00 +15°C° 0 mm 4 mps 750 mmHg 54%
17:00 +14°C° 0 mm 4 mps 750 mmHg 58%
18:00 +13°C° 0 mm 3 mps 750 mmHg 63%
19:00 +11°C° 0 mm 3 mps 751 mmHg 67%
20:00 +10°C° 0 mm 3 mps 751 mmHg 70%
21:00 +9°C° 0 mm 2 mps 751 mmHg 73%
22:00 +7°C° 0 mm 2 mps 752 mmHg 76%
23:00 +7°C° 0 mm 2 mps 752 mmHg 78%

Day after tomorrow, 20 May, Thursday

Time Temperature Precipitation Wind Pressure Humidity
00:00 +6°C° 0 mm 2 mps 752 mmHg 80%
01:00 +6°C° 0 mm 2 mps 752 mmHg 82%
02:00 +6°C° 0 mm 2 mps 752 mmHg 84%
03:00 +5°C° 0 mm 2 mps 752 mmHg 85%
04:00 +5°C° 0 mm 2 mps 752 mmHg 87%
05:00 +7°C° 0 mm 2 mps 753 mmHg 80%
06:00 +9°C° 0 mm 2 mps 753 mmHg 74%
07:00 +11°C° 0 mm 3 mps 753 mmHg 67%
08:00 +12°C° 0 mm 3 mps 753 mmHg 62%
09:00 +14°C° 0 mm 3 mps 753 mmHg 56%
10:00 +16°C° 0 mm 3 mps 753 mmHg 51%
11:00 +15°C° 0.1 mm 4 mps 753 mmHg 55%
12:00 +15°C° 0.1 mm 4 mps 753 mmHg 58%
13:00 +14°C° 0.1 mm 5 mps 753 mmHg 62%
14:00 +14°C° 0.2 mm 5 mps 753 mmHg 60%
15:00 +14°C° 0.2 mm 5 mps 753 mmHg 59%
16:00 +14°C° 0.2 mm 5 mps 754 mmHg 57%
17:00 +13°C° 0 mm 5 mps 754 mmHg 60%
18:00 +12°C° 0 mm 4 mps 754 mmHg 62%
19:00 +10°C° 0 mm 4 mps 754 mmHg 64%
20:00 +8°C° 0 mm 4 mps 754 mmHg 68%
21:00 +8°C° 0 mm 3 mps 754 mmHg 72%
22:00 +5°C° 0 mm 3 mps 754 mmHg 76%
23:00 +5°C° 0 mm 3 mps 754 mmHg 79%

21 May, Friday

Time Temperature Precipitation Wind Pressure Humidity
00:00 +5°C° 0 mm 3 mps 754 mmHg 82%
01:00 +4°C° 0 mm 3 mps 754 mmHg 85%
02:00 +4°C° 0 mm 3 mps 754 mmHg 86%
03:00 +3°C° 0 mm 3 mps 754 mmHg 87%
04:00 +3°C° 0 mm 3 mps 754 mmHg 89%
05:00 +5°C° 0 mm 4 mps 754 mmHg 80%
06:00 +6°C° 0 mm 4 mps 754 mmHg 72%
07:00 +8°C° 0 mm 4 mps 754 mmHg 63%
08:00 +10°C° 0 mm 4 mps 754 mmHg 57%
09:00 +11°C° 0 mm 4 mps 754 mmHg 52%
10:00 +12°C° 0 mm 4 mps 754 mmHg 46%
11:00 +13°C° 0 mm 4 mps 753 mmHg 43%
12:00 +14°C° 0 mm 4 mps 753 mmHg 41%
13:00 +15°C° 0 mm 4 mps 753 mmHg 39%
14:00 +15°C° 0 mm 4 mps 752 mmHg 39%
15:00 +15°C° 0 mm 4 mps 752 mmHg 39%
16:00 +15°C° 0 mm 4 mps 752 mmHg 39%
17:00 +14°C° 0 mm 3 mps 751 mmHg 47%
18:00 +14°C° 0 mm 2 mps 751 mmHg 55%
19:00 +13°C° 0 mm 1 mps 751 mmHg 62%
20:00 +12°C° 0 mm 1 mps 751 mmHg 66%
21:00 +10°C° 0 mm 2 mps 751 mmHg 69%
22:00 +10°C° 0 mm 2 mps 750 mmHg 73%
23:00 +10°C° 0.1 mm 2 mps 750 mmHg 79%

22 May, Saturday

Time Temperature Precipitation Wind Pressure Humidity
00:00 +10°C° 0.1 mm 2 mps 750 mmHg 85%
01:00 +10°C° 0.1 mm 2 mps 749 mmHg 91%
02:00 +10°C° 0.1 mm 2 mps 749 mmHg 92%
03:00 +10°C° 0.1 mm 2 mps 748 mmHg 93%
04:00 +10°C° 0.1 mm 2 mps 748 mmHg 93%
05:00 +10°C° 0 mm 3 mps 747 mmHg 89%
06:00 +11°C° 0 mm 4 mps 747 mmHg 84%
07:00 +12°C° 0 mm 5 mps 747 mmHg 79%
08:00 +14°C° 0 mm 5 mps 746 mmHg 72%
09:00 +15°C° 0 mm 5 mps 746 mmHg 66%
10:00 +17°C° 0 mm 6 mps 746 mmHg 59%
11:00 +16°C° 0.1 mm 5 mps 747 mmHg 66%
12:00 +14°C° 0.1 mm 5 mps 747 mmHg 73%
13:00 +13°C° 0.1 mm 5 mps 747 mmHg 80%
14:00 +14°C° 0.3 mm 4 mps 747 mmHg 77%
15:00 +14°C° 0.3 mm 4 mps 747 mmHg 74%
16:00 +16°C° 0.3 mm 3 mps 747 mmHg 71%
17:00 +14°C° 0.2 mm 3 mps 747 mmHg 73%
18:00 +13°C° 0.2 mm 3 mps 747 mmHg 75%
19:00 +13°C° 0.2 mm 2 mps 747 mmHg 77%
20:00 +12°C° 0.2 mm 2 mps 748 mmHg 81%
21:00 +12°C° 0.2 mm 2 mps 748 mmHg 84%
22:00 +10°C° 0.2 mm 2 mps 748 mmHg 87%
23:00 +9°C° 0 mm 2 mps 748 mmHg 88%

23 May, Sunday

Time Temperature Precipitation Wind Pressure Humidity
00:00 +8°C° 0 mm 2 mps 748 mmHg 89%
01:00 +7°C° 0 mm 2 mps 748 mmHg 90%
02:00 +7°C° 0 mm 2 mps 748 mmHg 90%
03:00 +7°C° 0 mm 2 mps 748 mmHg 90%
04:00 +6°C° 0 mm 2 mps 748 mmHg 90%
05:00 +8°C° 0 mm 2 mps 748 mmHg 84%
06:00 +10°C° 0 mm 3 mps 748 mmHg 79%
07:00 +11°C° 0 mm 3 mps 748 mmHg 73%
08:00 +13°C° 0 mm 4 mps 748 mmHg 67%
09:00 +14°C° 0 mm 4 mps 749 mmHg 61%
10:00 +16°C° 0 mm 5 mps 749 mmHg 55%
11:00 +15°C° 0.2 mm 5 mps 749 mmHg 58%
12:00 +15°C° 0.2 mm 5 mps 749 mmHg 61%
13:00 +15°C° 0.2 mm 5 mps 749 mmHg 64%
14:00 +15°C° 0.1 mm 5 mps 749 mmHg 63%
15:00 +15°C° 0.1 mm 5 mps 749 mmHg 62%
16:00 +15°C° 0.1 mm 4 mps 749 mmHg 60%
17:00 +14°C° 0.1 mm 4 mps 749 mmHg 64%
18:00 +14°C° 0.1 mm 3 mps 750 mmHg 68%
19:00 +13°C° 0.1 mm 3 mps 750 mmHg 71%
20:00 +11°C° 0 mm 3 mps 750 mmHg 76%
21:00 +10°C° 0 mm 3 mps 751 mmHg 81%
22:00 +9°C° 0 mm 3 mps 751 mmHg 86%
23:00 +8°C° 0 mm 3 mps 752 mmHg 88%
Show more

We Need Your Consent

Meteoprog and our Service Providers may store and access personal data such as cookies, device identifiers or other similar technologies on your device and process such data to personalise content and ads, as well as provide social media features and to analyse the traffic.

  • Store and/or access information on your device

    Cookies, device identifiers or other information can be stored or accessed on your device for the purposes indicated above.

  • Personalised ads and content, ad and content measurement, audience insights, and products development

    Ads and content can be personalised based on a profile. More data can be added to better personalise ads and content. Ad and content performance can be measured. Insights about the audience who saw the ads and content can be derived. Such data can be used to develop or improve user’s experience, systems and software.

By clicking ‘I Agree’ you will allow the use of indicated cookies, device identifiers, web beacons or other similar technologies. Your settings can be changed in the browser on your device.

For certain purposes, legitimate interests may be relied on, rather than consent. You can read more about this in our Privacy and Cookie Policy.